Location: Rometta
(44.2000°N, 10.0500°E)
Time: 07:10:36
(UTC+00:00)

Cosmos 2142 Rocket - Visible Passes

Search period start: 09 May 2021 00:00
Search period end: 19 May 2021 00:00
Orbit: 953 x 1004 km, 82.9° (Epoch: 08 May)

Date Brightness Start Highest point End Pass type
(mag) Time Alt. Az. Time Alt. Az. Time Alt. Az.
09 May 7.0 03:27:52 10° NNE 03:33:10 27° ENE 03:38:20 10° SE visible
10 May 7.7 19:14:19 10° W 19:17:52 15° WNW 19:21:25 10° NNW visible
11 May 7.6 02:36:35 10° NNE 02:39:46 14° ENE 02:42:56 10° E visible
12 May 7.0 03:01:38 10° NNE 03:06:41 25° ENE 03:11:39 10° ESE visible
14 May 7.5 02:10:39 10° NE 02:13:14 13° ENE 02:15:49 10° E visible
15 May 7.1 02:35:24 10° NNE 02:40:12 22° ENE 02:44:56 10° ESE visible
16 May 6.1 03:01:07 10° N 03:06:55 39° ENE 03:12:38 10° SE visible
17 May 7.6 01:44:55 10° NE 01:46:43 11° ENE 01:48:30 10° ENE visible
18 May 7.1 02:09:12 10° NNE 02:13:42 20° ENE 02:18:09 10° ESE visible
